IRIDIUM 33 DEB, 35616

Orbit data source: Space-Track

IRIDIUM 33 DEB, 35616 is space debris in LEO originally from a launch on Sun, 14 Sep 1997 UTC launched from the Tyuratam Missile And Space Complex (TTMTR). The debris from Iridium 33, an American commercial communications satellite, has been tracked extensively since its accidental collision with the defunct Russian satellite Cosmos 2251 in 2009. This event, occurring at high speed in low Earth orbit (LEO), generated thousands of pieces of space debris, significantly increasing the risk of further collisions. The Iridium 33 debris cloud has impacted space traffic management and orbital debris mitigation strategies, making it a subject of ongoing study in space situational awareness.

Loading next visibility...
Identifier
35616, 1997-051QN
Orbit
LEO
Country
Flag of USUS
Related business
Manufacturer
Unknown
Mission
Spacecraft
Bus & Motor
Unknown
Mass
Unknown
Launch date (UTC)
1997-09-14 (28 years ago)
Launch vehicle
Unknown
Launch site
Tyuratam Missile And Space Complex (TTMTR)
Object type
Payload
Rocket body
Debris
Shape & HBR
Unknown shape, 0.1 m
Radar Cross Section
Small (<0.1 m²)

Expand to show TLE details & history
Last TLE update: 2 days ago

TLE from 2 days ago
0 IRIDIUM 33 DEB
1 35616U 97051QN  25301.44846756  .00014399  00000-0  18897-2 0  9999
2 35616  86.3575   6.4025 0008711 350.5812   9.5244 14.80178043869042
Epoch: 2025-10-28T10:45Z
TLE epoch observation values (Epoch: 2025-10-28T10:45:47.597Z)
Latitude
-0.00004°
Longitude
167.91837°
Altitude
625.857 km
Speed
7.549 km/s
True Right ascension
00h 25m 36s
True Declination
0° 00' 00"
Sunlit
Object was in full shadow at epoch
Visualization orbit readout
Latitude
Unknown
Longitude
Unknown
Altitude
Unknown
Speed
Unknown
Apparent Right ascension
Unknown
Apparent Declination
Unknown
Sunlit
N/A
Visualization observer readout
Local Sidereal Time
03:40:20
Azimuth
Unknown
Elevation
Unknown
Doppler factor
Unknown
Orbital elements
Apogee altitude
631.764 km
Perigee altitude
619.562 km
Semi-major axis
7,003.8 km
Eccentricity
0.00087
Inclination
86.3575°
RAAN
6.4025°
Arg. of periapsis
350.5812°
True anomaly
9.54093°
Mean anomaly
9.5244°
Eccentric anomaly
9.53267°
Mean motion
3.70291 °/min
Orbital period
97.22 mins
BSTAR
0.0018897
Loading maneuver chart data...
Computing Atmospheric mass density...

Documentation

Showing up to 5 results
|